Location: Unspecified
(41.5000°N, 0.0000°E)
Time: 22:26:30
(UTC+00:00)

Courier 1B Rocket - Pass Details

Date: 30 June 2019
Orbit: 921 x 1202 km, 28.2° (Epoch: 17 July)

Event Time Altitude Azimuth Distance (km) Brightness Sun altitude
Rises 01:15:02 0° 232° (SW) 4,073 - -23.2°
Reaches altitude 10° 01:18:29 10° 219° (SW) 3,088 - -23.0°
Maximum altitude 01:24:24 25° 169° (SSE) 2,140 - -22.6°
Exits shadow 01:26:04 23° 149° (SSE) 2,212 6.5 -22.5°
Drops below altitude 10° 01:30:04 10° 118° (ESE) 2,958 7.4 -22.3°
Sets 01:33:18 0° 105° (ESE) 3,867 8.2 -22.0°
